#timestamp,LO_Frequency,Hit 
1501369215.2,286047000.8,P
1501369235.0,286046999.9,N
1501369235.9,286046999.9,N
1501369255.8,286047001.2,N
1501369275.6,286046999.1,N
1501369295.4,286047000.8,N
1501369315.3,286047000.9,N
1501369335.1,286046999.6,N
1501369355.9,286046995.3,P
1501369375.7,286046996.9,N
1501369395.5,286046998.2,N
1501369415.4,286046997.8,N
1501369435.2,286046998.8,N
1501369455.0,286046998.9,N
1501369456.0,286046998.9,N
1501369475.8,286046997.1,N
1501369495.6,286046999.2,N
1501369515.5,286046997.7,N
1501369535.3,286046996.2,N
1501369555.1,286046995.7,P
1501369575.9,286046999.2,N
1501369595.7,286046998.2,N
1501369615.6,286047000.7,N
1501369635.4,286046999.4,N
1501369655.2,286046996.6,N
1501369675.1,286046999.3,N
1501369676.0,286046999.3,N
1501369695.8,286046999.3,N
1501369715.6,286046996.8,N
1501369735.5,286046997.0,N
1501369755.3,286046997.3,N
1501369775.2,286046997.3,N
1501369795.9,286046996.8,N
1501369815.7,286046999.3,N
1501369835.6,286047001.6,N
1501369855.4,286047003.4,N
1501369875.3,286047005.9,P
1501369895.1,286047005.9,N
1501369896.0,286047005.9,N
1501369915.8,286047002.2,N
1501369935.7,286047000.4,N
1501369955.5,286047002.6,N
1501369975.3,286047002.3,N
1501369995.2,286047001.9,N
1501370015.0,286047000.1,N
1501370015.9,286047000.1,N
1501370035.8,286047002.8,N
1501370055.6,286047000.2,N
1501370075.4,286046999.1,N
1501370095.3,286046998.6,N
1501370115.1,286047001.2,N
1501370135.8,286047002.0,N
1501370155.7,286047004.2,N
1501370175.5,286047004.0,N
1501370195.4,286047001.3,N
1501370215.2,286047003.3,N
1501370235.0,286047003.4,N
1501370235.9,286047003.4,N
1501370255.8,286047005.3,N
1501370275.6,286047003.7,N
1501370295.4,286047003.8,N
1501370315.3,286047002.1,N
1501370335.1,286047000.2,N
1501370355.9,286046999.7,N
1501370375.7,286047002.0,N
1501370395.5,286046999.8,N
1501370415.4,286046998.3,N
1501370435.2,286046998.9,N
1501370455.0,286046998.1,N
1501370456.0,286046998.1,N
1501370475.8,286046998.1,N
1501370495.6,286047000.5,N
1501370515.5,286047000.4,N
1501370535.3,286047002.4,N
1501370555.1,286047002.7,N
1501370575.9,286047001.1,N
1501370595.7,286046998.8,N
1501370615.6,286046999.4,N
1501370635.4,286046998.6,N
1501370655.2,286046998.6,N
1501370675.1,286046998.1,N
1501370676.0,286046998.1,N
1501370695.8,286047001.0,N
1501370715.6,286046998.5,N
1501370735.5,286046999.6,N
1501370755.3,286046998.4,N
1501370775.2,286047002.2,N
1501370795.9,286047000.6,N
1501370815.7,286046998.8,N
1501370835.6,286046996.5,N
1501370855.4,286046997.2,N
1501370875.2,286046997.5,N
1501370895.1,286046995.5,N
1501370896.0,286046995.5,N
1501370915.8,286046995.0,N
1501370935.7,286046997.8,N
1501370955.5,286046995.5,N
1501370975.3,286046995.4,N
1501370995.2,286046996.4,N
1501371015.0,286046995.8,N
1501371015.9,286046995.8,N
1501371035.8,286046995.7,N
1501371055.6,286046995.5,N
1501371075.4,286046996.4,N
1501371095.3,286046993.3,P
1501371115.1,286046997.5,N
1501371135.8,286046997.3,N
1501371155.7,286046999.6,N
1501371175.5,286046998.3,N
1501371195.4,286046999.3,N
1501371215.2,286046996.7,N
1501371235.0,286046997.8,N
1501371235.9,286046997.8,N
1501371255.8,286046997.7,N
1501371275.6,286046999.1,N
1501371295.5,286046999.3,N
1501371315.3,286047002.7,N
1501371335.1,286047002.1,N
1501371355.9,286047004.3,N
1501371375.7,286047004.0,N
1501371395.5,286047005.2,N
1501371415.4,286047005.1,N
1501371435.2,286047005.2,N
1501371455.1,286047004.6,N
1501371456.0,286047004.6,N
1501371475.8,286047004.7,N
1501371495.6,286047003.9,N
1501371515.5,286047002.9,N
1501371535.3,286047005.4,N
1501371555.1,286047002.5,N
1501371575.9,286047000.5,N
1501371595.7,286047000.4,N
1501371615.6,286046998.4,N
1501371635.4,286046998.6,N
1501371655.2,286046998.6,N
1501371675.1,286047000.8,N
1501371676.0,286047000.8,N
1501371695.8,286047002.5,N
1501371715.6,286047000.4,N
1501371735.5,286047000.8,N
1501371785.4,286046996.7,E
1501371795.3,286046998.2,N
1501371815.1,286047002.6,P
1501371835.9,286047004.1,N
1501371855.7,286047003.2,N
1501371875.5,286047003.3,N
1501371895.4,286047004.7,N
1501371915.2,286047006.7,P
1501371935.0,286047003.1,N
1501371935.9,286047003.1,N
1501371955.8,28601501371975.7,286047004.4,P
1501371995.6,286047005.6,P
1501372015.4,286047005.7,P
1501372035.2,286047004.9,P
1501372055.1,286047002.2,P
1501372056.0,286047002.2,N
1501372075.8,286046999.9,N
1501372095.7,286047000.3,N
1501372115.5,286047000.5,N
1501372135.3,286047000.3,N
1501372155.2,286046999.9,N
1501372175.0,286047000.1,N
1501372175.9,286047000.1,N
1501372195.7,286046999.8,N
1501372215.6,286047000.9,N
1501372235.4,286047000.1,N
1501372255.3,286047002.8,N
1501372275.1,286046998.1,N
1501372276.0,286046998.1,N
1501372295.8,286047002.8,N
1501372315.7,286047000.3,N
1501372335.5,286047001.1,N
1501372355.3,286046999.4,N
1501372375.2,286046996.5,N
1501372395.0,286046999.3,N
1501372395.9,286046999.3,N
1501372415.8,286046999.0,N
1501372435.6,286047000.7,N
1501372455.4,286047002.0,N
1501372475.3,286047004.3,N
1501372495.1,286047001.5,N
1501372515.9,286047001.7,N
1501372535.7,286047004.3,N
1501372555.5,286047000.4,N
1501372575.4,286046998.5,N
1501372595.2,286047001.0,N
1501372615.0,286047000.6,N
1501372615.9,286047000.6,N
1501372635.8,286046998.2,N
1501372655.6,286047000.2,N
1501372675.5,286047000.0,N
1501372695.3,286047001.2,N
1501372715.1,286047000.6,N
1501372735.9,286046999.0,N
1501372755.7,286046999.2,N
1501372775.6,286046999.3,N
1501372795.4,286046999.6,N
